Regional Weather Roundup
Issued by NWS Goodland, KS

Home | Current Version | Previous Version | Text Only | Print | Product List | Glossary Off
Versions: 1 2 3 4 5 6 7 8 9 10 11 12 13 14 15 16 17 18 19 20 21 22 23 24 25 26 27 28 29 30 31 32 33 34 35 36 37 38 39 40 41 42 43 44 45 46 47 48 49 50

000
ASUS43 KGLD 282059
RWRGLD

GOODLAND FORECAST AREA HOURLY WEATHER ROUNDUP
NATIONAL WEATHER SERVICE GOODLAND KS
300 PM MDT MON JUL 28 2014

...OFFICIAL OBSERVATIONS...

CITY           SKY/WX    TMP DP  RH WIND       PRES   REMARKS
GOODLAND KS    NOT AVBL
HILL CITY KS   SUNNY     88  54  31 SE8       30.23F
IMPERIAL NEB   NOT AVBL
MCCOOK NEB     NOT AVBL
AKRON CO       PTSUNNY   85  53  33 SE15G25   30.27F
BURLINGTON CO  NOT AVBL
LIMON CO       NOT AVBL
$$

...UNOFFICIAL OBSERVATIONS...

CITY           SKY/WX    TMP DP  RH WIND       PRES   REMARKS
COLBY KS       MOSUNNY   84  61  45 S9G17     30.26F HAZE
LENORA KS        N/A     84  32  15 MISG        N/A
NORTON KS      SUNNY     88  50  27 CALM      30.24F
WAKEENEY KS      N/A     89  51  27 MISG        N/A
TRENTON NEB      N/A     90  32  12 S9          N/A
KIT CARSON CO    N/A     81  55  40 N16G24      N/A
YUMA CO          N/A     86  53  32 SE14        N/A
$$


USA.gov is the U.S. government's official web portal to all federal, state and local government web resources and services.